Location: *
(35.8942°N, 23.3025°E)
Time: 07:04:58
(UTC+00:00)

Cosmos 1869 Rocket - Pass Details

Date: 21 September 2021
Orbit: 605 x 632 km, 82.5° (Epoch: 21 October)

Event Time Altitude Azimuth Distance (km) Brightness Sun altitude
Rises 03:31:14 0° 354° (N) 2,895 7.0 -9.5°
Reaches altitude 10° 03:33:28 10° 355° (N) 1,990 6.2 -9.0°
Maximum altitude 03:37:53 83° 82° (E) 632 3.7 -8.1°
Drops below altitude 10° 03:42:18 10° 172° (S) 1,992 6.2 -7.2°
Sets 03:44:32 0° 173° (S) 2,898 7.0 -6.8°
